TimeEST,TemperatureF,Dew PointF,Humidity,Sea Level PressureIn,VisibilityMPH,Wind Direction,Wind SpeedMPH,Gust SpeedMPH,PrecipitationIn,Events,Conditions,WindDirDegrees,DateUTC
12:56 AM,30.0,26.1,85,30.41,10.0,Calm,Calm,-,N/A,,Clear,0,2012-11-16 05:56:00
1:56 AM,30.0,26.1,85,30.42,10.0,Calm,Calm,-,N/A,,Clear,0,2012-11-16 06:56:00
2:56 AM,27.1,25.2,92,30.43,10.0,Calm,Calm,-,N/A,,Clear,0,2012-11-16 07:56:00
3:56 AM,27.1,25.2,92,30.43,10.0,Calm,Calm,-,N/A,,Clear,0,2012-11-16 08:56:00
4:56 AM,27.1,25.2,92,30.44,9.0,Calm,Calm,-,N/A,,Clear,0,2012-11-16 09:56:00
5:56 AM,26.1,25.2,96,30.46,8.0,Calm,Calm,-,N/A,,Mostly Cloudy,0,2012-11-16 10:56:00
6:56 AM,27.1,25.2,92,30.47,8.0,Calm,Calm,-,N/A,,Overcast,0,2012-11-16 11:56:00
7:13 AM,26.6,24.8,93,30.40,5.0,Calm,Calm,-,N/A,,Scattered Clouds,0,2012-11-16 12:13:00
7:56 AM,27.1,26.1,96,30.49,7.0,Calm,Calm,-,N/A,,Clear,0,2012-11-16 12:56:00
8:56 AM,30.0,27.1,89,30.51,6.0,Calm,Calm,-,N/A,,Clear,0,2012-11-16 13:56:00
9:56 AM,36.0,31.1,82,30.51,10.0,Calm,Calm,-,N/A,,Clear,0,2012-11-16 14:56:00
10:56 AM,41.9,32.9,70,30.51,10.0,NE,4.6,-,N/A,,Clear,50,2012-11-16 15:56:00
11:56 AM,45.0,32.9,63,30.49,10.0,Variable,6.9,-,N/A,,Clear,0,2012-11-16 16:56:00
12:56 PM,45.9,32.0,58,30.48,10.0,Variable,4.6,-,N/A,,Clear,0,2012-11-16 17:56:00
1:56 PM,47.8,30.0,50,30.48,10.0,ENE,4.6,-,N/A,,Clear,60,2012-11-16 18:56:00
2:56 PM,48.9,30.0,48,30.48,10.0,Variable,4.6,-,N/A,,Clear,0,2012-11-16 19:56:00
3:56 PM,47.8,30.0,50,30.49,10.0,NNW,5.8,-,N/A,,Clear,340,2012-11-16 20:56:00
4:56 PM,45.9,29.1,52,30.51,10.0,North,5.8,-,N/A,,Clear,360,2012-11-16 21:56:00
5:56 PM,43.0,28.0,56,30.53,10.0,Calm,Calm,-,N/A,,Clear,0,2012-11-16 22:56:00
6:56 PM,39.9,28.0,63,30.54,10.0,North,3.5,-,N/A,,Clear,360,2012-11-16 23:56:00
7:56 PM,37.9,29.1,71,30.56,10.0,Calm,Calm,-,N/A,,Clear,0,2012-11-17 00:56:00
8:56 PM,37.9,30.0,73,30.57,10.0,Calm,Calm,-,N/A,,Clear,0,2012-11-17 01:56:00
9:56 PM,36.0,30.0,79,30.58,10.0,Calm,Calm,-,N/A,,Clear,0,2012-11-17 02:56:00
10:56 PM,34.0,30.0,85,30.58,10.0,Calm,Calm,-,N/A,,Clear,0,2012-11-17 03:56:00
11:56 PM,31.1,29.1,92,30.58,10.0,Calm,Calm,-,N/A,,Clear,0,2012-11-17 04:56:00